Location: Nairn
(57.5833°N, 3.8667°W)
Time: 20:22:45
(UTC+00:00)

Tiros 1 - Pass Details

Date: 30 November 2020
Orbit: 630 x 663 km, 48.4° (Epoch: 22 January)

Event Time Altitude Azimuth Distance (km) Brightness Sun altitude
Rises 18:58:14 0° 261° (W) 2,992 11.9 -25.4°
Reaches altitude 10° 19:00:57 10° 247° (WSW) 2,074 10.6 -25.8°
Maximum altitude 19:04:43 24° 195° (SSW) 1,371 8.9 -26.3°
Enters shadow 19:05:10 23° 186° (S) 1,382 8.8 -26.4°
Drops below altitude 10° 19:08:29 10° 143° (SE) 2,056 - -26.8°
Sets 19:11:10 0° 129° (SE) 2,959 - -27.2°
